This demonstration page uses our WeatherBlox Daily Observations layout. Learn more.

Left ArrowRight Arrow

47.50024, -111.30081

Hourly Observations for March 22, 2017

Temp ( °F °C ) Dew Point ( °F °C ) Humidity (%) Winds ( mph kmh ) Pressure ( in mb ) Visibility ( mi km ) Precip ( " mm )
12:53 am 00:53 Mostly Cloudy 43 6.1 31 -0.6 63 63 S 14 22 29.79 1009 10 16 0.00 0.00
1:53 am 01:53 Cloudy 43 6.1 31 -0.6 63 63 SSW 10 17 29.76 1008 10 16 0.00 0.00
2:53 am 02:53 Mostly Clear 45 7.2 31 -0.6 58 58 S 17 28 29.73 1007 10 16 0.00 0.00
3:53 am 03:53 Clear 45 7.2 32 0 61 61 S 20 31 29.74 1007 10 16 0.00 0.00
4:53 am 04:53 Mostly Clear 46 7.8 33 0.6 61 61 SSW 13 20 29.71 1006 10 16 0.00 0.00
5:53 am 05:53 Mostly Clear 43 6.1 33 0.6 68 68 SW 10 17 29.76 1008 10 16 0.00 0.00
6:53 am 06:53 Clear 42 5.6 32 0 68 68 SSW 12 19 29.79 1009 10 16 0.00 0.00
7:53 am 07:53 Sunny 43 6.1 32 0 65 65 SW 15 24 29.80 1009 10 16 0.00 0.00
8:53 am 08:53 Sunny 49 9.4 32 0 52 52 SW 22 35 29.80 1009 10 16 0.00 0.00
9:53 am 09:53 Sunny 52 11.1 30 -1.1 43 43 SW 25 41 29.79 1009 10 16 0.00 0.00
10:53 am 10:53 Sunny 55 12.8 27 -2.8 34 34 WSW 28 44 29.76 1008 10 16 0.00 0.00
11:53 am 11:53 Sunny 57 13.9 27 -2.8 32 32 SW 28 44 29.77 1008 10 16 0.00 0.00
12:53 pm 12:53 Sunny 60 15.6 25 -3.9 26 26 WSW 24 39 29.76 1008 10 16 0.00 0.00
1:53 pm 13:53 Sunny 61 16.1 24 -4.4 24 24 WSW 20 31 29.75 1007 10 16 0.00 0.00
2:53 pm 14:53 Sunny 60 15.6 22 -5.6 23 23 WSW 29 46 29.73 1007 10 16 0.00 0.00
3:53 pm 15:53 Sunny 59 15 22 -5.6 24 24 WSW 18 30 29.73 1007 10 16 0.00 0.00
4:53 pm 16:53 Sunny 59 15 23 -5 25 25 WSW 20 31 29.73 1007 10 16 0.00 0.00
5:53 pm 17:53 Sunny 58 14.4 21 -6.1 24 24 WSW 14 22 29.74 1007 10 16 0.00 0.00
6:53 pm 18:53 Sunny 54 12.2 23 -5 30 30 SW 9 15 29.77 1008 10 16 0.00 0.00
7:53 pm 19:53 Clear 48 8.9 23 -5 37 37 W 7 11 29.78 1009 10 16 0.00 0.00
8:53 pm 20:53 Clear 43 6.1 23 -5 45 45 W 5 7 29.80 1009 10 16 0.00 0.00
9:53 pm 21:53 Mostly Clear 43 6.1 24 -4.4 47 47 WNW 6 9 29.80 1009 10 16 0.00 0.00
10:53 pm 22:53 Clear 41 5 25 -3.9 53 53 WSW 3 6 29.82 1010 10 16 0.00 0.00
11:53 pm 23:53 Clear 39 3.9 25 -3.9 57 57 Calm 29.82 1010 10 16 0.00 0.00

Powered by AerisWeather